Home > Weather > Kingston > Past weeks

Flag for Norfolk Island Past Weather in Kingston, Norfolk Island — Yesterday and Last 2 Weeks

Now
66 °F

Broken clouds.


Feels Like: 66 °F
Forecast: 59 / 65 °F
Wind: 18 mph from South

Location: Norfolk Island Airport

Current Time: Jul 28, 2016 at 3:50:51 PM

Latest Report: Jul 28, 2016 at 3:00 PM


Visibility: N/A

Pressure: 30.01 "Hg

Humidity: 60%

Dew Point: 52 °F

Location of KingstonLocation

Past Weather in Kingston — Graph

°F

Kingston Temperature Yesterday

Maximum temperature yesterday: 70 °F (at 12:00 PM)
Minimum temperature yesterday: 57 °F (at 4:30 AM)
Average temperature yesterday: 64 °F

High & Low Weather Summary for the Past Weeks

 TemperatureHumidityPressure
High70 °F (Jul 22, 12:00 PM)94% (Jul 14, 5:01 AM)30.30 "Hg (Jul 14, 5:01 AM)
Low57 °F (Jul 21, 6:00 AM)46% (Jul 15, 10:00 AM)29.86 "Hg (Jul 23, 2:00 PM)
Average64 °F74%30.10 "Hg
* Reported Jul 13 2:00 PM — Jul 28 2:30 PM, Kingston, Weather by CustomWeather, © 2016

Note: Actual official high and low records may vary slightly from our data, if they occured in-between our weather recording intervals... More about our weather records

Advertising

Kingston Weather History for the Previous 24 Hours

Scroll right to see more
 ConditionsComfort  
Time TempWeatherWind HumidityBarometerVisibility
2:30 PM
Thu, Jul 28
66 °FPartly sunny.13 mph83%30.01 "HgN/A
2:00 PM66 °FBroken clouds.12 mph83%30.01 "HgN/A
1:30 PM66 °FLight rain. Broken clouds.15 mph83%30.01 "HgN/A
1:00 PM66 °FPartly sunny.13 mph78%30.01 "HgN/A
12:30 PM66 °FLight rain. More clouds than sun.13 mph88%30.01 "HgN/A
12:00 PM66 °FLight rain. More clouds than sun.13 mph88%30.04 "HgN/A
11:30 AM66 °FSprinkles. Mostly cloudy.10 mph83%30.04 "HgN/A
11:00 AM66 °FScattered showers. Mostly cloudy.6 mph83%30.04 "HgN/A
10:30 AM66 °FScattered showers. Mostly cloudy.12 mph83%30.04 "HgN/A
10:00 AM64 °FMostly cloudy.9 mph94%30.07 "HgN/A
9:00 AM63 °FSprinkles. Broken clouds.9 mph94%30.04 "HgN/A
8:00 AM68 °FSprinkles. Broken clouds.13 mph94%30.04 "Hg5 mi
7:52 AM68 °FSprinkles. Low clouds.14 mph94%30.04 "Hg3 mi
7:00 AM66 °FSprinkles. Mostly cloudy.12 mph94%30.04 "Hg6 mi
6:30 AM66 °FSprinkles. Low clouds.10 mph94%30.01 "HgN/A
6:00 AM68 °FLow clouds.12 mph88%30.01 "HgN/A
5:30 AM66 °FSprinkles. Mostly cloudy.13 mph94%30.01 "HgN/A
5:00 AM66 °FMostly cloudy.14 mph94%30.01 "HgN/A
4:30 AM66 °FLow clouds.12 mph94%30.01 "HgN/A
4:00 AM66 °FLow clouds.12 mph94%30.01 "HgN/A
3:30 AM66 °FLow clouds.12 mph94%30.01 "HgN/A
3:00 AM66 °FLow clouds.12 mph94%30.01 "HgN/A
2:30 AM66 °FPassing clouds.10 mph94%30.01 "HgN/A
2:00 AM66 °FMostly cloudy.12 mph94%30.01 "HgN/A
1:00 AM66 °FMostly cloudy.12 mph94%30.04 "HgN/A
12:30 AM66 °FLow clouds.12 mph94%30.04 "HgN/A
12:00 AM66 °FMostly cloudy.10 mph94%30.04 "HgN/A
11:30 PM
Wed, Jul 27
66 °FMostly cloudy.13 mph94%30.07 "HgN/A
11:00 PM66 °FLow clouds.9 mph94%30.07 "HgN/A
10:30 PM68 °FLow clouds.12 mph88%30.07 "HgN/A
10:00 PM68 °FLow clouds.15 mph88%30.07 "HgN/A
9:00 PM66 °FLow clouds.14 mph94%30.07 "HgN/A
8:30 PM66 °FLow clouds.14 mph94%30.07 "HgN/A
8:00 PM66 °FMostly cloudy.13 mph88%30.07 "HgN/A
7:30 PM66 °FMostly cloudy.14 mph88%30.09 "HgN/A
7:00 PM66 °FOvercast.10 mph88%30.09 "HgN/A
6:30 PM66 °FOvercast.13 mph88%30.07 "HgN/A
6:00 PM66 °FMostly cloudy.12 mph88%30.07 "HgN/A
5:00 PM66 °FMostly cloudy.10 mph88%30.07 "HgN/A
4:30 PM66 °FMostly cloudy.12 mph88%30.07 "HgN/A
4:00 PM66 °FPartly sunny.13 mph88%30.07 "HgN/A
3:30 PM66 °FPartly sunny.13 mph83%30.07 "HgN/A
3:00 PM66 °FMostly cloudy.14 mph83%30.07 "HgN/A
Weather by CustomWeather, © 2016

See weather overviewHow to use our weather pages